Theta_e
341 343 342 343 344 345 344 344 342 342 341 339 342 340 344 347 348 347 348 349 349 350 347 347 344 345 344 343 342 346 344 348 348 350 357 359 362 362 363 365 366 366 367 365 360 363 358 359 362 358 358 358 357 356 357 356 358 362 361 361 359 352 354 350 346 345 339 336 342 343 342 348 353 351 350 346 345 344 344 349 347 348 348 352 354
342 341 342 342 343 344 344 343 344 340 340 338 342 339 344 347 347 347 346 349 349 350 347 349 346 346 343 341 340 340 347 347 345 349 357 361 361 361 363 365 364 365 367 365 362 359 358 361 358 358 357 358 358 359 356 358 360 360 360 355 360 351 350 349 346 343 340 336 335 338 342 343 347 349 345 345 346 345 343 347 346 344 345 347 348
339 340 341 341 342 343 343 343 343 342 340 338 342 340 343 346 347 347 347 349 350 351 349 350 348 350 345 342 338 339 349 348 346 352 359 359 359 360 362 363 364 365 366 367 363 362 361 361 362 361 358 361 357 356 358 357 358 359 357 354 355 355 354 355 348 347 340 346 345 343 334 332 341 347 350 348 343 343 343 342 339 341 345 343 345
335 337 338 340 341 342 343 342 343 344 340 337 341 341 341 347 346 346 349 351 351 353 353 353 350 351 347 344 340 344 344 348 351 356 358 359 357 359 362 363 364 364 365 366 366 364 364 363 364 361 360 362 357 357 358 358 359 357 358 359 355 348 346 348 350 348 346 337 331 336 334 335 330 333 339 342 344 343 342 341 340 342 343 345 346
337 336 338 339 339 341 342 342 343 344 340 337 341 341 341 345 347 347 349 352 352 356 353 352 352 350 348 345 347 347 349 345 345 352 355 358 357 357 361 362 363 362 363 363 363 362 362 362 361 358 363 364 362 359 360 359 359 360 359 357 353 350 348 349 353 345 347 352 347 337 334 330 331 334 337 336 345 340 341 341 343 343 342 341 342
338 338 337 338 339 340 342 342 342 343 341 336 342 341 341 345 347 348 349 353 352 355 354 351 349 346 343 343 340 339 339 340 339 345 351 354 354 357 362 361 361 360 361 360 362 362 364 364 362 362 365 364 361 360 362 361 359 358 360 358 356 356 352 350 347 355 346 357 349 344 340 329 330 336 335 329 345 347 343 343 342 341 343 345 343
344 340 339 338 339 339 341 341 342 343 344 341 344 341 341 346 348 349 349 352 354 354 354 351 349 346 343 344 342 339 339 340 341 342 350 351 355 355 358 360 360 360 360 360 361 362 364 364 364 363 363 364 366 363 363 361 360 359 361 355 354 360 357 349 348 348 346 349 349 346 348 350 348 340 330 338 330 337 347 341 339 340 342 342 344
340 340 338 339 339 339 340 342 342 344 346 344 345 342 341 346 348 348 350 352 354 354 352 350 347 345 345 344 345 339 340 339 341 341 345 349 352 354 356 358 359 359 359 359 361 362 364 363 364 363 362 363 365 362 360 361 361 363 361 359 361 360 358 352 350 350 342 339 349 347 348 347 339 337 347 339 334 332 336 342 340 339 341 342 343
339 338 338 338 338 339 342 342 343 345 346 345 345 343 345 345 349 349 351 350 353 352 351 349 348 345 344 344 344 341 341 342 344 346 343 347 350 353 354 356 358 358 359 358 361 363 365 363 364 362 362 362 366 361 359 360 357 361 360 361 360 360 360 357 352 351 352 348 345 347 347 345 343 337 344 339 342 329 332 335 335 343 341 341 342
339 339 339 339 340 340 343 344 344 345 346 348 347 345 346 346 349 348 351 350 352 351 351 349 347 346 343 343 342 344 344 343 342 347 342 341 348 350 352 354 356 356 360 359 360 362 363 364 364 363 362 361 364 358 357 357 357 360 361 361 362 360 360 361 353 354 355 354 350 347 343 346 341 344 341 337 339 334 330 331 334 336 331 336 344
339 339 340 340 341 341 343 343 344 345 346 348 348 346 348 345 348 347 350 351 352 350 349 349 348 345 343 344 342 346 344 342 340 343 344 340 342 348 350 353 355 354 356 360 359 361 362 364 363 363 363 363 363 360 360 358 357 360 361 361 363 363 361 359 361 361 358 357 353 347 346 346 336 343 343 340 337 336 338 337 335 338 334 336 339
340 339 339 340 339 340 342 343 343 344 346 347 348 347 348 346 348 347 348 351 352 350 348 348 349 344 344 345 343 346 346 342 339 341 346 341 341 346 350 353 353 355 354 355 359 358 361 362 362 362 362 360 360 360 362 360 358 358 358 359 359 362 361 361 359 357 357 354 352 352 349 349 347 344 344 340 340 335 337 332 334 336 340 337 346
340 340 339 338 337 338 339 342 343 343 345 346 348 348 348 346 347 347 347 350 352 350 348 347 348 346 344 345 345 346 347 343 341 341 343 342 344 343 349 350 351 352 353 352 355 356 358 359 359 359 360 360 362 359 359 362 364 356 356 358 359 359 360 359 357 357 358 355 350 352 349 348 347 345 343 342 340 343 336 333 335 341 335 336 344
340 340 340 339 338 339 340 342 343 344 345 346 347 348 348 347 347 347 347 349 352 350 348 347 347 348 345 346 347 346 346 346 343 342 342 343 344 344 345 351 351 352 353 353 353 355 358 359 360 359 362 360 362 361 359 360 363 362 362 357 358 360 360 360 359 359 358 358 357 352 351 350 348 347 342 343 340 344 338 335 337 343 340 338 339
340 340 340 340 340 340 340 342 344 345 346 346 347 348 348 348 347 346 346 347 350 350 348 346 346 348 347 346 348 346 345 346 345 345 341 343 343 346 345 350 350 352 353 354 355 353 357 359 359 358 362 363 362 364 365 362 363 362 364 362 361 361 360 360 359 358 358 357 355 355 356 353 353 352 346 345 344 344 343 344 340 332 332 337 339
339 340 340 341 341 341 341 341 344 345 346 346 346 348 348 348 348 347 346 347 348 351 349 347 346 348 348 346 346 347 347 345 345 347 343 343 343 343 346 347 351 350 352 354 355 354 354 358 359 358 360 363 362 362 361 361 362 359 358 359 359 363 360 357 358 358 357 356 356 357 358 354 354 356 358 354 353 353 351 350 345 337 332 331 334
339 339 340 340 340 342 342 342 343 346 346 346 346 347 348 348 349 347 347 347 346 350 350 348 346 346 347 347 346 346 345 343 343 344 346 344 345 343 345 347 349 351 351 355 354 355 354 357 357 358 359 361 362 362 362 361 361 360 360 358 356 359 357 358 357 355 357 357 356 355 356 353 354 358 357 355 358 353 354 354 349 343 340 335 332
339 340 341 341 341 342 343 344 345 346 347 346 346 347 348 349 350 348 348 347 346 347 349 348 346 346 346 346 345 345 344 343 342 343 344 347 347 345 346 347 348 352 352 352 353 354 355 362 357 357 358 360 362 362 362 362 362 359 360 360 360 359 358 360 360 358 357 355 356 355 356 354 356 355 353 353 353 356 354 350 350 354 347 337 336
337 339 340 341 342 343 344 345 346 348 348 347 347 348 349 349 350 350 349 349 347 347 348 349 348 346 347 346 345 344 343 343 342 343 341 345 348 348 347 348 349 350 353 350 351 352 355 356 357 356 357 359 360 361 363 362 362 359 359 360 360 359 357 357 359 358 357 357 356 355 357 357 358 355 355 355 355 358 354 355 354 356 355 344 344
338 340 341 342 344 345 345 346 346 347 348 347 347 348 348 349 351 351 351 351 350 347 348 348 348 347 346 346 346 345 344 342 341 341 340 340 345 349 349 350 349 349 349 351 349 351 352 355 356 356 358 358 359 360 362 362 361 359 358 359 359 359 358 357 357 359 360 356 354 354 354 354 357 357 357 358 356 357 356 353 353 353 351 353 349
339 340 342 343 344 346 346 347 347 348 349 349 348 347 348 349 351 352 351 351 350 349 348 348 349 347 346 345 345 345 343 343 341 341 340 339 340 345 349 350 351 348 347 346 352 350 351 354 355 356 357 358 357 358 361 361 361 359 357 357 356 357 357 356 356 356 358 356 356 354 352 354 357 355 355 355 354 354 356 356 356 353 352 353 351
338 339 341 343 344 346 346 347 347 347 348 348 348 348 348 349 350 353 353 353 352 350 349 349 350 348 345 345 345 345 345 343 341 340 340 339 339 340 344 348 349 350 348 346 347 353 352 353 354 355 356 357 358 357 358 360 359 358 358 359 358 357 356 356 356 355 356 359 357 355 353 355 357 354 355 356 355 352 351 352 353 355 352 353 355
337 338 340 342 344 346 346 346 345 346 346 348 348 348 347 348 351 353 354 354 354 353 352 351 350 349 347 345 345 345 345 344 342 340 340 340 340 340 342 345 347 349 350 348 346 350 353 352 353 354 355 355 356 357 357 357 358 358 357 358 358 357 358 356 356 356 356 357 356 355 356 356 359 356 356 355 355 353 352 351 352 353 352 352 354
337 339 341 341 343 346 346 345 344 345 345 347 348 348 348 349 350 353 354 355 355 355 354 352 352 351 349 347 345 345 345 344 343 342 341 341 341 341 343 345 347 348 350 351 349 348 353 353 352 353 354 354 355 356 356 356 357 358 357 357 356 356 355 357 357 356 357 357 356 354 355 356 355 353 353 354 354 353 352 351 352 352 353 353 353
337 338 339 341 343 344 344 345 346 347 348 348 348 348 348 349 350 352 354 357 357 358 356 355 354 352 351 348 347 346 344 344 343 343 342 343 343 343 344 345 348 348 349 351 351 350 351 354 354 353 354 354 355 356 356 356 356 358 357 357 356 355 355 355 356 357 362 357 357 356 356 356 353 352 352 353 354 354 354 354 352 352 351 352 353
336 337 339 340 342 343 344 345 346 347 348 349 349 349 349 350 350 351 354 357 358 359 358 357 356 354 352 350 349 348 346 344 344 344 343 344 345 346 346 347 349 349 350 351 352 351 351 354 355 355 355 355 355 356 356 355 356 357 357 357 357 357 356 355 355 356 359 358 357 357 357 356 355 353 353 353 353 352 353 354 353 352 352 353 353
336 337 339 340 340 340 342 345 346 347 349 350 349 349 349 349 349 350 352 356 358 359 359 358 357 355 354 352 351 350 349 347 346 345 346 346 345 347 348 349 350 351 350 351 352 352 352 353 355 356 356 356 355 355 355 355 355 355 356 356 356 356 356 357 356 355 356 358 358 358 357 357 356 355 354 353 353 353 354 353 353 353 353 353 353
337 339 338 337 338 340 342 344 345 346 348 349 350 349 349 349 348 350 351 353 356 358 358 358 357 356 354 353 353 352 351 350 348 348 347 347 347 347 349 350 351 350 351 351 352 353 353 354 355 356 357 358 356 355 355 354 354 354 354 355 355 355 356 356 356 356 356 357 358 358 358 358 357 357 356 355 354 353 354 353 354 355 356 355 355
333 335 340 344 338 341 343 344 345 345 346 348 348 349 349 349 349 350 351 352 355 356 358 358 357 356 355 355 354 354 353 352 351 349 349 348 348 347 349 351 352 351 352 352 353 354 354 354 355 356 356 358 357 355 356 355 354 353 353 354 355 355 355 355 355 355 355 355 356 357 357 357 359 366 362 360 360 361 356 354 354 355 354 353 353
330 331 334 337 342 346 346 345 344 344 345 346 347 348 349 348 349 350 351 352 354 355 357 357 357 357 357 356 355 355 354 354 352 350 350 350 349 349 350 352 352 352 352 353 353 354 354 354 354 355 356 358 358 357 352 343 347 354 353 354 355 354 354 355 355 354 354 355 355 356 358 368 366 369 359 351 350 353 358 358 354 356 355 355 354
328 328 330 332 334 338 342 346 345 345 347 347 347 348 349 349 349 350 351 352 353 354 356 357 357 358 358 357 355 354 354 353 353 352 351 350 350 351 351 352 353 353 353 353 353 353 354 355 355 355 355 356 358 358 343 335 338 344 354 355 354 354 354 354 354 354 353 353 355 356 356 363 367 370 365 353 348 347 348 351 355 360 364 357 354
325 327 328 330 331 332 336 340 345 347 348 346 345 351 349 348 350 350 351 352 352 354 355 356 357 358 358 357 355 355 354 353 354 353 352 351 351 351 351 352 353 354 354 354 353 352 354 354 355 355 356 357 357 349 336 334 335 336 345 356 355 353 354 354 354 354 354 353 353 355 355 356 355 354 356 360 354 348 344 345 346 348 353 356 356
323 325 327 327 330 332 333 337 340 347 346 345 347 350 349 347 347 350 349 350 352 352 355 357 358 358 358 357 356 355 354 354 354 354 353 352 351 351 351 351 353 355 354 354 353 352 353 354 355 354 355 357 357 344 333 332 333 334 336 350 355 354 353 354 354 354 354 354 353 353 353 354 355 366 363 356 357 356 344 338 342 344 347 345 340
320 323 324 326 328 332 332 333 335 337 342 355 351 350 346 348 351 351 352 352 350 347 346 353 358 357 358 357 356 355 355 355 355 355 354 352 351 351 352 352 353 355 354 354 354 353 353 354 355 354 355 358 358 345 331 329 329 330 333 340 356 355 353 353 354 355 355 354 354 353 351 351 351 353 355 354 355 355 353 350 347 347 349 352 346
318 320 321 324 325 326 331 333 335 337 339 342 347 347 347 354 353 350 349 350 350 349 347 346 354 357 358 357 356 355 355 355 355 355 354 353 352 351 352 352 353 354 354 353 353 353 353 354 355 356 355 357 360 340 329 326 326 327 330 336 355 356 355 353 353 355 356 356 355 355 353 351 351 350 351 354 353 355 354 352 350 349 349 351 353
317 318 319 321 322 324 325 328 336 337 340 342 343 346 353 350 352 351 348 347 348 348 347 348 353 357 357 357 357 355 355 355 355 355 354 353 352 351 351 352 353 353 355 355 354 354 353 353 354 356 356 355 359 334 327 325 325 326 329 344 354 356 356 355 355 354 356 357 357 356 355 354 353 352 355 347 354 356 357 356 353 351 350 352 353
317 318 319 321 321 323 325 328 330 333 334 339 345 346 345 350 348 348 347 347 348 348 348 349 354 357 358 358 357 356 355 355 355 354 354 354 353 352 352 354 352 352 353 354 354 354 354 354 353 354 356 356 357 337 326 324 323 324 329 348 353 355 356 355 356 357 357 357 358 357 357 356 355 355 350 337 338 357 355 357 357 357 357 357 357
317 318 320 319 320 322 324 326 327 329 332 334 338 341 340 343 349 347 347 347 347 348 349 351 354 357 358 358 358 357 356 356 355 354 354 355 355 354 353 354 353 351 351 353 354 354 354 354 353 353 353 354 356 339 322 322 322 322 332 349 353 354 355 355 355 356 357 359 361 368 367 357 356 356 343 334 334 345 351 353 355 356 356 357 359
316 316 316 317 319 321 322 324 325 326 329 331 335 339 339 340 346 350 346 345 347 348 350 351 355 357 358 359 358 357 356 356 355 355 355 355 355 355 354 355 354 353 352 353 355 354 354 354 354 354 352 352 354 342 318 322 320 320 331 350 352 353 353 354 354 354 355 356 356 362 367 361 358 354 338 333 332 343 352 352 353 353 353 353 355
314 316 317 318 320 319 319 319 321 323 327 329 331 334 336 340 343 347 350 348 346 349 351 354 356 358 359 359 359 358 357 357 356 356 356 356 357 356 355 354 354 354 352 352 354 354 354 354 355 355 355 354 353 353 330 318 318 318 322 348 352 352 352 353 354 353 353 354 354 355 353 335 330 332 332 327 326 329 352 355 355 354 352 352 355
312 314 319 316 316 317 317 319 321 323 325 327 329 331 334 337 341 343 346 350 350 348 349 353 357 358 359 360 360 359 358 358 358 358 358 358 358 357 356 355 354 354 353 351 352 354 354 355 356 356 356 356 355 354 338 315 315 316 317 330 352 353 353 353 353 353 353 353 353 354 354 342 329 324 322 320 318 319 333 355 357 356 356 355 355
314 316 316 315 316 317 317 318 320 322 324 325 327 329 332 335 338 341 346 351 354 349 348 350 357 358 359 360 360 360 360 360 360 360 358 357 358 359 357 356 355 354 352 351 352 353 354 355 356 357 357 357 355 347 351 316 314 313 315 318 347 353 354 354 353 353 353 353 353 354 354 345 330 325 321 317 316 317 320 344 356 338 339 340 355
311 311 314 316 315 315 316 317 319 321 323 324 325 327 329 333 335 340 347 353 356 354 348 349 355 357 358 360 361 360 360 361 361 361 359 358 359 359 358 357 355 353 352 351 352 354 354 355 356 356 357 357 358 354 339 334 314 312 312 314 325 342 337 355 354 352 353 354 355 355 357 351 329 322 319 318 318 318 324 335 330 328 333 333 353
313 313 313 316 315 315 315 317 318 320 322 323 324 325 328 330 333 339 345 353 359 357 350 348 353 356 357 359 361 361 362 362 362 362 361 359 359 359 359 358 356 354 352 351 351 353 353 354 354 355 357 357 357 358 337 329 325 312 312 313 316 325 332 349 356 354 354 355 355 355 351 335 324 317 316 318 320 322 332 324 321 327 331 339 345
312 312 315 316 315 314 315 316 318 319 321 323 324 325 327 328 333 339 344 353 360 357 350 348 351 356 357 359 361 362 362 362 363 363 361 360 360 360 359 358 357 354 353 352 351 351 351 352 353 354 355 356 357 358 354 334 323 316 313 312 315 319 322 328 351 356 355 356 343 335 333 327 325 319 318 320 321 321 320 323 323 326 345 343 343
314 313 314 316 316 315 315 315 317 319 320 323 324 325 325 328 333 338 346 356 362 358 351 351 352 354 357 359 361 362 362 363 363 364 363 362 361 361 360 359 358 356 355 353 352 351 350 350 352 354 354 355 356 357 356 347 330 323 317 314 315 317 323 325 340 352 345 331 326 327 325 324 325 326 330 332 335 336 324 324 326 332 342 343 342
313 313 317 316 316 314 314 315 315 318 320 322 323 325 327 330 334 342 353 359 361 358 353 352 355 356 357 359 360 361 362 363 363 364 364 363 363 362 361 359 359 358 356 354 353 351 350 349 350 352 354 355 355 355 356 351 342 335 330 327 321 323 321 325 335 341 333 332 324 329 331 326 331 326 333 335 334 334 330 330 333 337 340 342 343
314 314 317 316 315 314 314 315 316 318 320 321 323 324 327 330 339 354 354 353 356 356 354 354 356 357 357 359 360 359 360 362 362 363 363 363 363 363 361 360 360 359 357 355 354 352 350 350 349 350 351 352 352 353 356 352 343 339 337 334 330 331 331 333 338 345 346 347 342 332 327 338 335 336 341 342 340 335 335 334 337 338 340 343 346
313 314 317 315 314 314 315 316 317 319 320 322 323 326 331 338 350 352 350 349 355 354 354 356 357 358 357 358 360 360 362 362 362 362 363 364 363 362 361 362 364 364 361 358 356 355 354 353 352 350 349 349 350 351 356 337 345 330 337 338 333 332 334 335 335 332 349 347 344 344 345 344 344 344 345 346 344 340 338 338 340 340 342 344 346
314 315 316 314 314 315 315 316 318 320 321 323 326 333 339 348 350 350 350 347 350 356 355 356 358 358 358 358 360 361 362 361 362 361 361 353 327 315 335 361 363 351 341 337 335 355 357 356 353 353 352 350 350 354 335 324 320 317 317 320 322 320 320 331 328 322 339 348 346 345 346 346 345 345 346 346 347 346 344 342 343 337 343 345 345
314 315 314 313 313 315 316 317 318 321 324 327 330 333 339 347 350 351 349 347 347 347 353 355 357 358 356 358 359 360 361 361 362 361 361 353 344 329 303 298 307 334 332 322 320 325 330 335 351 354 348 333 336 328 313 316 313 312 312 313 312 312 313 315 318 327 339 347 348 347 346 346 345 346 345 346 346 347 347 346 346 345 346 346 344
Wind_Speed
14 13 12 14 15 9 10 12 13 12 12 14 11 11 11 11 13 13 10 10 9 8 7 6 7 6 6 7 6 5 6 5 6 7 8 8 8 7 7 5 5 5 5 4 4 3 4 3 5 4 3 3 3 3 2 1 1 0 0 1 1 2 1 2 4 5 5 2 2 3 3 2 1 2 3 4 4 4 3 6 6 6 7 8 7
15 12 12 15 15 15 11 11 13 14 13 15 11 12 12 12 14 13 9 10 9 9 8 5 6 6 7 8 5 4 4 5 5 7 8 8 8 7 6 6 6 5 5 5 4 4 4 3 4 5 4 3 3 2 2 1 1 1 1 1 0 0 1 0 4 3 1 2 2 0 1 1 3 2 3 5 5 5 5 4 6 6 5 6 5
16 16 15 13 16 16 12 13 12 14 14 16 11 11 12 11 12 13 9 10 10 9 8 5 5 5 6 7 6 4 3 5 5 7 8 8 8 7 7 7 6 5 5 6 5 5 4 4 4 5 4 4 3 2 2 2 2 1 2 1 0 0 1 1 3 2 1 2 2 3 1 1 2 2 1 2 5 3 5 3 5 6 7 5 6
14 17 18 16 16 14 12 13 13 13 13 15 11 12 11 10 12 12 11 11 10 9 8 6 8 4 5 8 6 5 4 4 3 9 7 9 8 7 7 7 6 6 6 5 5 5 5 5 4 5 5 4 5 4 3 3 2 2 2 2 2 0 1 1 1 3 2 4 2 2 3 4 0 1 2 2 1 4 6 5 5 5 8 5 6
10 14 15 17 15 16 14 13 13 14 14 15 13 12 11 12 14 13 12 11 10 10 9 8 8 5 5 7 4 3 2 3 4 8 8 8 8 6 8 8 7 6 6 6 5 6 6 5 5 5 5 5 5 4 5 5 4 4 4 3 2 2 0 0 1 2 3 3 2 1 1 2 1 2 1 3 2 3 3 4 5 4 7 8 7
12 14 18 18 16 16 16 15 15 14 15 15 13 12 12 11 13 13 11 11 12 11 10 9 10 7 7 8 6 6 6 5 6 9 8 8 8 6 7 8 7 6 6 6 5 5 6 6 5 5 5 5 5 5 4 3 4 4 5 4 3 2 2 1 1 2 2 3 3 3 3 3 3 1 3 1 3 3 3 3 7 6 8 7 5
7 7 10 17 18 16 16 17 16 15 15 15 13 12 13 11 13 13 12 10 11 12 10 10 8 8 9 8 8 9 8 6 5 6 8 7 6 7 7 7 7 6 6 6 5 5 5 6 6 5 5 5 5 4 4 5 4 3 4 4 4 3 2 0 1 1 2 1 1 3 2 1 4 2 1 0 1 3 2 2 8 5 8 7 7
12 11 11 10 17 18 18 19 16 16 15 16 13 13 14 12 14 14 11 11 11 11 11 11 10 9 8 6 9 9 9 8 7 6 7 6 9 8 7 7 7 5 6 6 5 6 5 6 6 5 5 5 5 5 4 4 3 3 4 5 3 3 3 2 1 1 1 1 1 1 1 1 2 2 3 4 2 1 3 3 3 5 4 6 6
16 13 13 12 13 18 17 18 15 16 16 17 14 15 12 13 15 13 13 13 11 14 11 10 11 10 8 6 7 8 8 7 6 6 7 6 9 7 8 7 7 7 6 7 5 6 6 6 5 4 4 5 5 5 4 5 5 5 5 5 4 3 3 2 1 1 1 1 0 1 3 2 2 1 1 1 1 1 2 2 5 1 3 7 7
15 15 15 15 12 17 16 17 17 16 16 15 15 14 12 13 15 15 14 13 12 14 12 10 11 10 9 6 8 8 7 7 7 6 7 6 8 8 8 7 7 7 5 7 6 6 6 6 5 5 5 4 5 6 5 4 4 5 5 5 4 3 3 3 3 3 2 2 1 3 1 1 1 0 0 0 1 1 2 3 3 1 3 4 2
15 15 16 16 13 17 16 18 18 15 15 16 15 15 13 15 16 16 15 13 13 14 13 12 11 11 10 7 9 8 9 10 9 5 8 7 7 8 8 7 7 7 5 6 7 6 6 6 6 6 4 4 4 4 3 6 6 5 6 5 5 5 4 3 2 3 3 1 1 3 3 4 3 2 2 2 2 0 1 2 2 1 2 1 2
16 16 16 16 13 15 16 17 18 17 16 17 16 16 15 15 16 17 15 15 14 15 14 12 11 12 10 9 9 8 9 10 11 8 8 9 8 9 7 7 7 7 6 6 7 7 6 6 6 6 6 5 5 4 3 3 7 6 6 6 5 4 4 3 3 1 1 3 2 2 4 4 3 4 3 4 3 3 2 2 2 2 2 2 4
18 16 16 16 16 16 18 17 18 18 16 19 18 17 16 15 17 18 17 16 15 16 16 14 12 12 12 10 9 8 8 10 10 9 7 8 8 7 8 8 7 6 7 7 6 8 6 6 6 6 6 6 5 5 4 3 3 5 5 6 5 5 5 4 3 3 3 3 5 4 4 4 5 6 4 4 5 3 3 1 2 0 1 2 2
18 17 16 15 16 16 17 18 18 17 17 19 19 18 16 16 18 18 18 17 15 16 17 15 14 13 13 12 9 9 8 10 10 9 7 7 7 8 8 9 9 9 8 9 8 7 7 7 7 6 5 6 5 6 5 4 3 4 4 5 6 6 5 5 5 4 4 4 5 5 4 5 6 6 5 4 4 3 1 2 1 2 1 1 2
17 17 18 17 16 17 18 17 17 18 18 19 18 17 16 16 18 20 17 16 15 17 16 17 14 13 13 12 10 9 9 9 10 9 8 7 6 7 8 7 8 8 9 7 7 7 7 7 8 7 5 6 6 5 5 4 3 3 2 2 3 5 6 6 5 4 4 5 4 5 5 3 2 2 1 2 3 5 4 3 4 1 3 3 3
19 18 19 19 17 17 16 16 16 17 18 17 19 17 17 17 19 20 20 19 17 17 16 17 16 14 13 13 13 11 10 8 8 8 8 8 8 8 7 7 8 7 6 7 7 7 7 8 8 8 7 6 6 5 5 4 3 4 3 2 1 2 5 5 5 5 5 4 4 2 3 3 2 2 1 2 4 4 4 4 5 4 2 1 3
19 19 18 19 18 17 16 17 17 17 18 18 18 18 19 18 19 20 20 18 18 18 17 17 16 15 15 14 13 12 12 11 10 10 11 10 9 8 8 7 6 6 6 6 7 6 7 8 8 8 8 7 6 6 6 5 5 4 5 4 3 3 3 5 5 5 4 3 2 3 3 3 3 2 2 1 0 2 3 5 4 4 5 2 0
22 20 19 20 20 20 18 17 18 20 21 20 19 18 18 18 20 21 20 20 19 17 16 15 15 15 15 15 15 14 13 13 12 11 9 10 9 9 8 7 7 8 8 7 7 8 7 8 8 8 8 7 7 7 7 7 6 6 6 5 5 4 3 3 4 5 5 4 4 3 3 4 4 3 4 4 1 2 3 2 2 2 5 3 3
18 18 17 18 18 19 19 19 19 19 20 20 19 18 17 16 19 21 22 21 20 17 16 14 15 13 13 16 16 15 13 12 12 11 9 9 11 10 10 10 9 7 8 8 8 8 8 8 8 8 8 8 7 7 7 7 6 6 6 6 5 5 4 4 3 4 4 3 3 4 2 3 3 4 3 3 2 2 4 4 4 2 2 4 5
19 18 19 19 20 21 21 20 20 19 18 19 19 17 19 18 19 20 20 18 18 18 17 17 16 14 14 14 14 14 14 13 12 12 12 11 11 11 11 10 11 9 8 9 9 9 9 9 8 9 8 8 8 7 8 7 7 7 6 6 6 6 5 5 4 3 3 4 4 4 4 3 3 1 1 1 1 2 3 4 4 4 4 4 5
18 19 19 20 20 20 21 20 20 18 17 18 18 19 19 18 18 20 21 21 20 20 18 16 15 16 15 16 16 15 15 14 13 13 13 13 11 11 11 10 9 11 10 8 8 10 10 10 10 9 9 9 8 8 7 8 8 7 7 7 6 7 6 6 5 4 3 4 5 5 5 5 3 3 3 3 3 3 2 5 5 5 5 4 4
21 20 20 20 19 19 19 18 17 17 17 18 18 17 17 18 18 18 19 19 20 19 18 18 16 16 17 17 17 16 15 14 15 14 14 14 13 12 11 10 10 11 11 12 9 8 9 11 10 10 10 9 9 9 8 7 8 8 8 7 6 7 8 7 6 6 5 4 3 4 6 5 5 4 4 3 3 4 4 3 4 5 6 5 4
20 19 18 19 19 18 19 20 19 19 18 19 18 18 18 18 17 17 19 20 20 20 19 17 17 16 18 17 16 16 16 16 17 15 16 15 14 13 12 12 12 10 10 11 12 10 9 11 11 10 10 9 9 9 8 8 8 9 9 8 8 7 7 8 7 7 7 5 5 4 4 5 4 4 4 5 4 4 4 3 4 4 5 5 5
21 18 17 18 17 17 17 18 18 18 17 19 18 18 18 17 18 18 21 21 20 18 17 17 17 18 18 17 17 16 18 17 17 16 17 16 15 14 13 13 13 11 11 10 11 12 9 10 11 11 11 10 9 10 10 10 10 10 10 9 8 8 7 7 8 7 7 6 6 5 5 4 4 5 4 5 5 5 6 6 5 4 5 6 6
19 18 18 16 15 18 17 18 17 17 16 17 17 17 17 16 15 18 19 20 19 17 17 18 18 19 18 18 18 17 18 19 19 17 18 17 16 14 13 14 13 13 12 11 11 11 10 11 12 12 12 11 11 11 11 11 10 9 10 9 9 8 8 8 8 8 7 7 7 6 6 5 4 5 4 5 5 5 6 5 5 5 4 4 4
20 19 18 17 18 17 15 16 16 17 17 17 16 17 18 17 17 15 15 17 18 17 17 17 17 18 18 20 19 18 19 20 20 18 18 18 16 15 15 14 14 14 13 13 13 11 11 12 12 12 12 12 11 11 12 12 11 10 9 9 9 8 7 8 8 8 8 7 8 8 7 6 6 6 6 5 5 6 5 5 5 5 5 4 4
14 23 19 17 17 18 18 18 18 18 17 16 18 18 17 18 18 16 15 15 16 17 17 17 17 18 18 19 19 19 18 19 19 18 16 16 16 16 16 15 15 14 14 13 13 13 12 12 13 12 12 12 12 11 11 11 11 10 10 9 9 9 9 7 7 9 8 8 8 8 7 7 7 7 7 7 6 5 6 6 7 7 6 4 5
23 17 5 20 19 18 18 19 18 17 17 17 17 18 19 19 19 17 15 15 14 16 17 17 16 17 17 18 19 18 18 17 17 17 16 17 16 16 16 15 14 15 15 14 13 14 13 12 12 12 12 11 11 11 11 11 11 10 9 9 10 9 10 9 8 7 8 8 9 8 8 7 8 7 8 7 6 7 6 6 7 6 5 5 6
17 17 22 15 2 8 18 19 18 17 16 17 16 16 16 16 16 15 15 16 15 16 16 16 16 17 18 18 17 16 16 15 16 16 16 16 16 16 15 14 14 15 13 14 13 14 13 13 12 12 12 11 11 11 10 11 11 11 10 10 10 10 10 10 9 9 8 8 7 8 8 8 8 10 12 10 9 9 7 7 7 6 6 7 6
18 19 18 14 14 15 10 4 2 10 15 16 14 15 16 17 17 16 16 16 15 16 16 16 17 17 16 16 15 14 15 15 16 17 17 16 16 16 15 15 15 15 14 14 13 13 14 14 13 13 12 11 10 10 12 17 15 11 11 9 9 10 10 9 9 9 9 9 9 8 8 13 15 15 15 15 15 15 13 10 8 7 7 6 7
16 16 16 15 15 14 14 11 9 8 7 4 2 10 14 15 15 16 16 16 16 15 15 17 17 15 15 14 14 14 15 16 17 16 16 16 16 15 15 15 15 15 15 14 13 13 14 14 14 13 13 11 11 10 17 17 18 18 12 10 9 9 9 9 9 9 10 10 9 9 8 10 12 14 14 18 17 17 16 16 15 12 10 8 6
16 16 15 15 15 17 13 11 10 7 5 3 4 2 5 9 11 13 11 11 12 14 16 16 16 14 14 15 15 15 15 16 16 16 16 16 15 15 15 15 14 15 14 13 14 13 13 14 13 13 13 12 11 13 17 18 19 18 16 12 10 8 9 10 9 9 9 9 9 9 8 8 8 9 7 9 13 17 18 17 16 14 13 12 11
16 15 15 16 14 11 13 12 11 7 3 3 3 1 1 6 8 8 11 12 11 11 14 14 14 14 15 15 14 15 16 16 16 16 15 15 15 15 16 15 16 15 14 15 15 14 12 13 14 14 13 13 12 15 17 19 19 19 19 16 10 10 9 9 10 10 9 9 8 8 8 7 8 15 13 8 7 10 15 18 17 16 15 14 12
15 15 15 15 12 13 14 15 14 12 11 3 2 2 3 5 4 5 8 6 4 7 16 14 14 14 15 15 15 15 16 16 15 15 14 15 16 16 16 15 14 13 15 15 15 15 12 12 13 14 13 13 13 15 18 19 19 19 19 17 11 11 10 9 9 10 9 9 9 9 9 8 6 6 7 8 8 8 8 9 10 9 9 12 12
14 14 14 12 12 12 12 15 16 15 12 11 9 3 1 2 6 7 8 10 10 13 15 15 15 15 15 15 16 16 16 15 14 14 14 16 17 15 15 14 14 15 15 15 15 15 14 12 12 13 13 13 12 17 18 19 19 20 20 17 12 10 9 9 9 8 10 10 10 9 9 10 9 8 7 7 7 7 7 7 7 8 9 9 8
15 15 14 13 14 14 13 12 12 13 13 12 10 11 8 8 9 9 10 12 11 13 16 16 17 15 17 17 18 17 16 15 15 15 15 16 16 16 16 14 13 13 12 12 13 13 14 13 11 12 13 13 13 19 19 20 21 21 21 13 12 11 10 9 9 8 8 9 10 10 9 10 9 9 12 15 12 7 7 8 8 8 7 7 8
15 16 15 13 14 14 15 13 10 11 11 9 9 11 13 10 7 13 12 13 13 14 16 17 17 17 18 18 18 18 17 16 16 16 16 16 16 16 14 12 13 13 13 13 14 14 13 14 13 12 13 13 12 16 21 21 21 22 16 11 12 11 11 11 10 9 9 8 9 10 10 10 10 9 12 15 15 12 6 8 8 8 8 7 8
14 14 13 15 15 15 16 15 16 13 10 12 12 11 13 13 9 8 12 13 15 16 18 17 16 17 18 18 18 18 18 17 16 18 17 16 15 13 14 13 13 13 14 14 13 12 12 13 15 14 13 12 13 14 21 21 22 22 18 14 12 11 12 11 10 8 6 6 7 12 11 10 10 11 13 15 15 12 8 8 8 8 8 8 8
14 14 15 16 15 15 15 15 16 15 15 14 14 14 12 14 12 9 8 14 16 18 19 18 17 17 17 17 17 18 18 18 18 17 16 16 15 15 13 12 13 12 12 11 12 12 12 12 13 14 16 15 11 12 20 22 23 22 19 12 12 11 11 11 10 10 9 8 7 8 11 9 8 10 14 15 16 12 9 9 9 7 8 9 9
14 13 13 14 14 15 16 16 16 16 16 14 13 11 13 14 14 11 12 12 15 17 17 16 14 15 15 16 16 17 18 18 18 16 15 15 13 12 13 14 13 12 11 11 11 12 13 12 12 13 13 14 14 9 14 21 22 22 23 15 10 11 11 12 11 10 9 9 10 9 10 13 14 12 11 13 14 15 11 9 7 8 9 12 7
15 16 16 14 13 13 14 15 14 16 16 14 12 13 14 13 13 14 14 14 13 12 12 10 10 13 14 15 15 16 18 18 16 16 15 13 13 13 13 13 14 12 12 11 12 12 13 12 12 12 12 13 13 12 12 20 21 22 23 20 11 13 13 12 11 11 10 10 10 10 10 14 16 15 14 14 12 14 13 9 8 9 11 8 5
11 14 15 15 14 14 15 15 15 16 15 13 13 14 14 14 14 16 17 15 13 12 11 9 9 13 14 15 16 15 16 15 14 13 13 14 14 13 13 14 13 12 13 13 11 11 12 12 12 12 12 12 13 17 10 16 21 21 21 23 13 13 14 12 11 10 9 9 10 10 10 14 17 17 16 15 16 14 14 9 11 14 11 9 7
14 15 16 15 14 14 14 15 14 15 14 14 15 16 16 15 15 17 17 16 16 13 12 13 12 13 13 14 14 15 14 11 13 15 15 15 13 13 13 13 13 13 14 14 12 11 12 12 11 11 11 11 11 12 17 14 18 21 22 22 23 16 17 13 11 11 11 11 10 10 9 13 15 17 17 17 17 19 13 11 17 14 10 10 6
10 12 14 15 14 13 13 13 13 13 13 13 13 16 16 17 19 17 15 16 15 16 14 15 14 15 15 14 15 15 14 13 14 14 14 14 13 13 13 12 13 13 12 13 12 10 11 12 12 11 11 11 11 10 14 19 17 22 21 24 24 22 18 14 12 11 10 10 9 9 9 13 15 17 19 19 19 18 14 17 16 14 11 8 5
11 13 13 13 14 16 15 14 12 15 14 13 12 15 18 20 19 16 16 17 16 15 16 17 16 15 15 14 14 13 14 14 13 14 14 14 14 13 13 13 13 13 12 13 12 12 11 12 12 12 12 11 11 11 11 15 22 22 23 23 24 24 19 19 15 11 10 9 10 12 12 15 16 16 19 19 17 18 19 18 16 13 10 5 6
10 11 12 14 15 15 15 16 16 15 15 14 14 13 17 20 19 18 17 17 17 16 15 17 16 15 16 15 14 14 14 14 14 13 14 13 13 13 13 12 12 12 13 13 12 12 12 11 11 12 12 12 12 11 11 11 14 18 18 22 24 24 22 19 19 14 13 10 12 14 15 13 12 11 9 7 7 10 14 16 13 11 7 6 5
10 11 13 14 15 14 15 17 18 15 13 13 15 15 15 16 17 18 17 17 19 16 15 15 15 14 15 14 15 13 13 13 13 12 11 11 12 12 13 12 12 13 14 13 12 13 13 12 12 11 12 11 11 11 10 10 11 10 11 13 15 15 18 14 9 3 5 7 9 8 7 7 4 8 8 6 6 5 4 5 6 6 6 6 6
8 10 11 13 14 14 16 18 17 17 15 13 14 15 16 16 16 14 12 16 16 13 14 15 16 14 13 14 14 17 16 12 12 12 11 11 12 13 14 14 15 15 15 14 14 14 14 14 13 12 11 11 11 11 11 11 11 11 12 11 11 11 10 11 10 9 7 6 6 5 6 5 4 4 4 4 4 4 4 5 6 6 6 6 7
10 10 10 12 13 15 14 16 17 14 14 15 14 16 16 16 14 11 11 13 13 12 14 14 14 13 13 13 12 12 12 12 12 12 12 13 15 14 14 13 14 13 14 15 16 15 15 15 15 14 13 12 10 11 13 14 16 18 16 12 10 11 10 10 14 14 7 4 5 5 5 5 4 5 5 4 4 4 4 5 6 6 6 6 6
8 8 9 11 14 14 14 15 15 13 15 14 14 14 15 15 12 11 9 10 11 7 10 12 12 11 11 11 10 11 12 12 13 13 13 7 6 3 4 12 14 17 18 18 14 13 14 13 13 12 13 13 14 13 10 17 18 19 19 21 19 18 17 15 16 19 13 8 7 7 6 6 6 5 6 5 6 6 6 6 6 6 7 7 7
8 8 9 12 15 16 13 13 14 14 14 16 17 17 18 15 11 9 9 8 7 5 3 6 7 8 11 12 11 12 12 12 12 12 11 10 7 2 10 11 9 7 16 18 17 18 15 14 13 11 11 14 12 9 14 18 17 18 19 19 19 19 20 20 20 13 8 9 8 8 7 6 7 6 7 7 6 6 6 6 6 7 8 9 8
Wind_Direction
172 178 175 165 171 167 159 156 157 158 155 162 160 164 165 148 153 157 159 154 158 157 167 158 161 154 149 175 186 203 175 171 169 142 146 151 150 149 154 150 146 146 140 139 134 130 143 134 123 135 143 145 144 146 166 272 309 200 168 306 357 13 333 65 98 108 88 50 36 100 167 211 205 189 195 200 176 207 205 163 182 169 181 191 183
169 176 188 170 170 172 169 161 159 163 160 166 167 164 165 150 155 158 155 157 158 161 166 161 166 161 157 175 182 187 169 174 162 146 147 148 149 151 152 155 154 157 151 149 140 144 145 139 150 152 158 163 157 136 145 186 252 307 71 352 298 120 316 231 140 86 53 126 118 345 325 317 206 251 193 202 203 191 205 164 174 190 195 192 174
172 179 187 172 167 173 166 166 161 164 161 169 167 159 162 155 157 159 157 159 158 160 166 161 165 163 147 176 172 182 187 178 162 142 146 148 155 155 156 155 159 165 160 156 152 157 159 168 174 161 162 166 138 143 172 186 224 189 137 147 351 274 234 269 113 105 188 174 142 99 178 76 322 356 314 246 212 177 208 202 183 163 196 172 177
176 175 177 175 171 171 166 170 164 158 162 168 168 163 163 158 159 158 159 159 158 165 162 166 170 170 149 162 176 166 191 161 120 131 141 144 158 163 155 160 165 166 173 170 163 164 169 177 165 162 170 166 157 166 178 189 190 233 206 200 140 39 25 306 189 149 152 110 108 180 198 131 62 300 252 285 242 213 191 187 214 154 177 180 167
174 179 169 172 169 169 174 173 164 160 166 171 172 167 169 164 161 161 160 160 164 165 168 162 170 171 149 163 155 155 127 148 108 139 146 151 160 163 162 164 166 168 177 180 178 170 169 163 159 174 166 178 161 164 179 186 188 201 198 160 157 145 105 329 311 143 159 151 143 83 19 39 199 238 184 285 297 286 239 199 209 154 166 184 179
176 186 173 172 175 172 174 171 169 163 168 173 172 171 164 162 161 160 160 160 166 169 168 165 179 174 167 167 164 169 169 179 165 156 158 160 171 169 155 165 167 172 175 185 179 169 166 164 166 175 175 171 164 176 186 187 198 194 184 167 167 164 149 153 331 313 161 131 156 168 164 168 187 234 88 269 308 224 230 227 202 181 180 185 199
202 205 180 173 175 176 171 172 168 167 167 171 173 172 165 162 164 161 163 163 168 172 171 168 170 186 179 171 172 170 167 192 180 154 160 162 159 164 160 165 176 173 179 183 176 172 160 165 168 171 183 178 180 173 178 193 199 198 167 148 174 177 129 93 110 315 358 354 231 241 227 179 147 112 208 150 345 317 316 242 197 208 192 185 193
189 206 197 188 176 177 172 172 170 168 163 170 173 176 168 166 167 164 164 167 168 174 176 175 174 181 183 171 170 171 172 178 177 170 163 165 162 165 165 172 179 186 172 179 170 168 166 172 174 181 180 194 180 179 183 202 195 160 151 163 156 162 151 154 193 241 138 268 269 339 333 305 141 154 161 160 169 207 314 322 244 228 205 203 203
182 195 204 195 191 178 170 173 170 164 166 171 174 178 170 168 167 166 167 169 170 176 176 180 176 179 182 161 166 177 168 171 170 170 169 159 158 163 170 174 177 191 175 176 174 168 170 174 176 186 182 181 182 186 198 183 178 135 137 142 162 182 180 179 133 212 170 254 148 168 60 17 344 333 255 97 143 96 288 262 286 329 146 214 220
187 193 199 198 199 179 171 170 171 168 171 169 172 173 173 169 170 171 169 173 172 176 179 177 179 177 179 164 165 169 166 169 165 165 178 163 158 168 174 171 176 187 177 178 172 169 172 172 174 181 198 195 176 195 204 168 167 154 159 155 172 173 203 165 189 219 207 236 159 124 86 0 17 1 254 279 326 142 198 283 303 282 142 236 246
187 192 198 196 196 178 168 173 175 169 169 168 171 177 174 176 173 175 174 173 172 177 178 178 179 180 183 170 171 164 169 165 174 167 175 174 162 176 173 175 175 185 177 176 177 171 173 173 174 181 189 202 199 195 201 172 176 170 168 168 162 169 178 181 207 233 219 212 140 156 168 171 190 181 232 214 168 236 5 297 289 350 240 302 288
182 187 194 193 186 173 172 173 175 176 169 171 176 176 177 178 176 177 176 174 175 176 178 181 178 182 182 174 172 169 168 171 177 179 175 180 174 174 174 167 178 178 185 169 181 181 169 178 178 178 188 200 207 205 218 174 172 173 172 167 169 168 173 182 204 239 252 243 205 201 195 197 215 215 203 200 155 209 162 232 255 300 358 217 279
183 186 187 185 185 178 179 177 176 177 174 174 177 178 176 178 179 178 181 177 176 175 179 182 181 181 182 180 177 171 172 173 181 180 178 174 176 168 163 174 174 176 186 185 185 183 178 176 184 183 189 195 191 185 205 234 132 181 167 167 168 171 178 179 196 231 222 194 216 214 204 207 229 232 209 184 210 177 143 246 296 281 200 319 300
184 187 187 184 186 184 181 180 177 179 176 176 178 177 177 179 180 183 183 180 176 177 178 181 185 183 181 181 179 176 175 175 183 186 184 177 170 176 169 171 177 183 182 189 189 183 182 186 184 190 184 190 183 179 190 216 157 131 150 168 178 182 180 178 188 213 232 226 205 222 235 207 214 226 229 183 195 144 150 171 229 326 37 336 296
187 186 188 190 184 182 183 179 178 179 178 177 179 177 177 177 181 184 184 184 179 179 179 182 184 185 183 182 179 182 178 177 182 189 184 179 179 176 180 173 175 183 186 185 185 187 185 183 183 190 189 184 181 172 173 173 160 135 128 149 156 181 179 175 188 201 237 248 236 208 229 269 296 248 176 249 169 174 162 177 136 61 347 357 348
189 187 190 191 187 183 180 182 178 179 180 178 179 179 179 179 181 184 184 184 183 180 183 183 184 183 185 184 184 183 183 178 176 184 187 185 184 180 185 182 184 181 185 182 192 187 184 184 185 188 189 184 180 173 171 165 162 156 169 177 229 166 173 181 189 195 223 241 240 219 200 242 282 316 17 95 143 143 147 145 126 114 122 322 333
185 189 188 187 185 184 184 183 183 182 183 182 182 182 181 179 180 183 185 186 186 185 184 185 183 182 186 188 186 184 184 185 183 182 184 188 186 189 185 189 180 180 186 187 195 192 189 181 187 188 188 187 183 178 172 173 173 165 175 187 204 237 194 190 195 197 219 248 254 252 201 205 249 276 319 324 153 134 114 112 135 144 157 136 267
188 186 184 184 184 184 185 184 183 184 184 185 184 182 182 179 180 182 183 186 189 187 186 186 186 187 186 188 190 190 189 190 188 186 180 182 189 190 190 186 188 187 190 195 191 195 191 187 182 187 188 186 187 182 176 175 174 179 181 185 197 205 218 215 195 185 208 223 250 245 214 204 209 224 248 262 241 147 136 147 153 159 146 156 177
186 184 181 184 185 187 186 186 185 182 184 185 183 182 182 180 181 181 185 187 186 186 186 188 190 190 189 189 189 192 193 192 191 190 184 182 188 190 191 194 193 188 191 196 197 195 190 188 181 184 186 187 186 187 179 178 174 180 180 187 196 197 217 225 221 191 208 202 235 261 215 207 217 211 236 243 243 199 180 157 161 145 148 159 171
185 182 183 184 186 186 187 187 186 183 183 184 183 183 185 183 179 183 185 184 184 187 187 189 191 193 194 192 193 192 192 193 192 189 192 193 191 189 192 190 196 195 191 193 196 196 193 189 185 184 186 188 189 187 183 180 181 183 183 185 193 191 203 213 226 205 199 196 226 241 257 242 220 194 245 274 263 186 190 176 187 191 200 178 162
183 182 181 184 184 184 187 187 186 184 184 183 184 185 188 186 183 182 182 183 186 189 187 189 189 195 194 194 193 192 195 194 195 194 196 197 197 195 194 194 189 198 199 194 194 198 194 192 190 189 187 188 190 191 185 183 184 186 190 188 190 192 198 212 209 231 227 206 211 216 229 235 216 211 226 240 262 266 201 198 198 193 204 212 187
185 181 182 184 183 182 184 185 185 184 182 184 186 187 187 189 187 182 182 185 187 189 190 188 190 193 196 196 196 194 194 193 195 196 198 199 200 200 199 195 193 197 196 204 201 195 196 192 191 192 191 188 189 190 188 182 188 188 191 193 197 192 200 204 201 212 223 230 213 212 228 220 208 204 213 215 224 242 253 229 222 202 207 215 203
183 182 183 184 182 180 184 183 185 186 184 184 186 190 192 189 184 183 184 187 188 190 191 188 190 192 197 198 196 195 194 194 196 197 200 199 201 202 199 198 200 199 196 199 204 200 193 193 193 192 191 191 188 190 192 188 191 191 191 195 200 193 189 197 199 204 210 215 232 227 227 222 204 198 210 222 218 229 245 230 224 210 214 224 221
183 182 182 184 180 179 178 185 189 187 184 185 188 189 190 190 187 183 186 187 188 190 190 189 190 194 196 196 197 197 195 195 197 198 200 201 200 202 200 200 201 199 198 200 200 202 193 192 194 192 192 192 189 192 193 196 195 193 193 196 196 202 194 192 198 201 200 202 215 226 233 218 213 204 217 222 227 225 234 255 255 212 207 226 227
180 180 182 179 178 177 178 182 183 182 182 185 188 188 188 191 189 185 186 185 186 187 191 193 192 194 194 197 199 197 197 197 198 198 199 199 200 200 199 202 199 201 200 198 201 200 196 192 194 193 193 193 192 192 194 198 198 195 195 194 196 197 202 200 198 198 198 199 205 215 226 221 210 214 229 224 221 217 223 223 241 259 240 219 218
178 182 177 176 179 176 179 181 181 181 180 183 186 188 189 190 192 187 182 182 185 186 193 194 193 193 195 198 200 199 200 199 198 198 199 198 198 198 198 200 200 201 200 199 198 199 197 195 196 194 193 195 193 192 194 197 198 196 194 194 194 200 200 201 203 200 199 197 202 212 218 213 213 215 227 224 216 218 217 222 236 238 236 244 249
188 179 174 179 175 179 181 181 181 182 181 182 185 189 192 193 193 191 188 186 186 188 191 195 192 194 195 198 199 201 201 200 199 199 197 198 199 199 197 199 199 201 200 200 199 199 199 196 197 195 195 194 194 194 195 197 198 196 194 193 195 200 206 203 204 205 205 199 201 205 211 211 212 214 220 222 217 217 212 225 227 229 233 228 237
37 13 216 178 175 180 182 182 183 185 183 183 185 189 192 193 193 193 191 190 193 194 194 195 193 193 196 198 200 200 201 200 199 198 198 198 198 199 199 198 197 201 202 202 200 199 198 198 197 197 197 193 194 195 196 197 199 198 194 195 195 199 203 210 211 209 206 206 205 206 209 208 211 214 214 220 214 217 213 223 224 220 221 218 229
39 30 31 16 341 196 182 179 184 185 183 184 185 190 194 196 195 195 194 196 193 197 198 196 195 194 197 198 198 199 199 199 198 197 199 199 199 199 198 196 196 199 201 202 201 198 197 199 198 197 197 195 195 198 196 197 198 200 197 197 198 199 201 203 211 214 214 211 206 207 212 215 213 215 214 215 215 210 207 216 229 218 224 224 233
30 37 30 19 22 23 15 13 232 196 187 186 187 190 190 192 196 195 195 196 194 198 199 199 199 198 196 194 195 196 196 196 196 197 198 198 198 197 197 197 195 197 198 199 200 196 197 197 197 197 196 196 197 199 199 196 196 197 198 200 198 201 201 202 203 209 215 216 216 213 214 213 215 218 217 218 220 220 215 210 212 206 211 214 221
25 31 27 16 12 15 20 26 35 37 30 5 275 208 194 194 197 199 199 196 197 199 201 205 205 198 193 190 193 196 195 196 198 198 197 198 197 196 196 196 195 194 196 196 197 196 197 196 197 197 197 200 199 199 194 195 196 196 196 201 199 201 203 203 201 202 209 213 217 216 219 223 220 221 221 217 220 223 225 226 222 212 205 202 212
18 17 20 23 9 3 5 10 3 7 15 61 80 74 191 206 204 205 204 201 199 202 207 208 209 199 191 191 193 194 196 199 197 198 197 197 197 196 196 195 194 193 194 193 197 197 195 194 196 197 199 201 204 198 189 194 196 196 196 200 203 200 202 204 205 203 207 209 213 214 217 218 223 224 221 223 225 226 226 228 228 225 218 210 199
11 10 14 12 0 355 345 0 353 5 8 57 24 346 145 141 117 89 52 17 331 272 225 211 209 197 195 193 192 194 198 198 199 199 197 196 197 198 197 195 195 193 190 193 197 195 195 193 192 195 198 200 204 199 191 193 196 197 200 200 206 206 200 204 205 207 206 207 209 213 216 217 219 223 228 221 209 222 227 229 230 229 229 225 225
6 10 7 4 355 353 342 343 345 341 346 298 187 220 152 87 77 114 118 129 133 344 323 279 212 200 195 193 193 195 198 200 199 197 196 197 199 200 198 196 193 189 191 195 195 197 193 192 193 193 196 198 202 197 192 193 196 198 201 201 210 207 209 207 205 206 208 207 207 210 214 222 223 220 219 219 214 214 215 222 230 231 233 241 237
360 2 358 359 359 354 340 331 328 332 337 340 326 264 229 113 140 154 171 179 184 191 209 245 246 202 193 192 194 196 199 199 197 196 197 199 201 202 199 196 193 191 192 193 194 195 195 192 193 192 194 197 202 192 189 192 195 198 202 200 211 210 211 214 210 205 207 208 210 210 212 219 222 225 222 209 206 215 218 219 218 221 225 231 228
356 351 349 357 355 343 335 330 318 323 328 327 327 328 329 257 219 179 185 195 205 201 211 215 228 211 194 192 193 195 197 196 195 196 198 201 202 201 200 197 195 195 195 194 196 195 195 194 190 191 194 199 200 186 187 190 196 200 199 198 208 210 213 216 215 210 206 209 210 211 213 218 221 222 224 222 218 202 206 214 217 223 227 229 231
350 347 345 353 341 337 331 326 325 322 326 318 321 325 319 318 244 208 193 196 200 212 215 215 220 207 197 193 192 194 194 193 193 195 200 201 200 201 202 196 198 197 192 193 195 196 195 195 193 190 193 199 202 188 187 190 195 200 193 201 204 209 213 215 216 212 210 208 210 212 212 217 219 220 218 213 218 210 206 208 212 217 220 220 233
345 346 343 341 337 335 331 329 329 329 331 333 337 326 323 315 306 248 214 204 204 213 217 217 215 205 198 193 192 192 193 192 193 198 200 200 199 200 200 196 199 198 196 194 193 196 196 198 198 197 192 191 202 189 188 190 194 196 189 197 202 205 213 215 218 217 211 210 211 213 212 216 216 220 213 207 212 206 214 213 210 215 218 225 233
343 344 341 335 336 333 328 326 328 329 335 338 332 325 317 305 298 295 255 220 212 215 217 216 211 205 198 194 191 191 191 192 195 199 197 197 198 198 198 197 202 202 200 191 191 196 198 199 201 202 200 197 199 188 191 192 194 193 191 199 198 203 210 214 213 218 219 221 227 224 222 216 216 219 209 206 209 200 212 215 216 215 226 232 232
340 339 338 331 331 331 332 331 329 329 330 330 327 317 303 296 294 294 288 265 228 216 214 215 210 202 199 194 193 191 192 192 195 195 193 197 195 193 196 199 201 202 199 195 191 195 197 200 198 201 202 205 208 192 189 197 196 194 192 194 197 198 208 212 211 211 214 221 227 233 233 234 230 226 213 206 207 201 208 217 209 216 227 235 228
341 337 334 333 333 332 328 324 322 322 324 326 324 314 303 298 297 294 283 273 268 239 219 209 196 198 196 195 194 193 192 193 192 190 190 192 193 195 194 196 200 201 201 199 196 195 198 200 199 201 202 204 209 203 189 192 198 195 196 194 194 202 205 206 207 209 211 213 218 224 230 232 230 229 224 219 210 208 214 214 210 220 221 226 183
337 333 332 332 331 327 325 324 322 321 320 322 321 311 302 301 297 289 281 282 278 259 233 208 188 196 197 195 195 195 193 191 188 184 186 193 194 193 194 196 198 199 201 202 199 195 197 199 200 200 203 205 205 205 182 195 193 196 195 197 199 204 203 201 204 209 209 212 217 218 223 227 225 228 226 222 219 215 215 215 224 222 220 182 191
338 335 333 330 327 327 325 321 322 322 320 317 316 307 302 297 288 281 285 284 282 267 235 218 201 195 195 194 195 190 189 188 187 187 188 192 190 192 194 192 195 198 201 202 201 197 196 198 199 202 204 205 202 204 185 185 196 193 196 199 205 205 199 200 201 207 207 212 215 218 222 222 218 220 221 222 222 220 215 220 226 221 194 177 168
330 327 322 324 319 318 318 321 320 319 316 314 311 307 300 296 287 287 288 282 275 266 238 217 207 200 196 193 190 189 188 188 187 185 188 189 190 193 192 193 194 197 199 202 203 199 197 197 198 201 203 204 203 200 191 185 188 195 196 199 206 210 191 200 204 210 208 211 208 212 219 219 214 215 216 219 221 217 215 222 222 216 172 167 164
330 323 319 318 317 319 321 319 320 318 317 313 310 303 299 293 291 296 290 287 279 264 234 214 206 198 195 192 186 187 187 187 187 183 185 189 191 189 193 195 194 197 199 201 203 201 200 198 198 200 202 202 200 199 194 194 190 193 197 200 205 208 206 197 202 213 208 207 203 201 210 218 219 216 216 219 222 221 219 219 216 201 186 178 186
321 318 317 316 317 320 319 318 319 317 314 316 309 301 295 292 294 292 287 282 277 262 231 212 205 197 194 186 184 185 186 187 184 185 188 189 189 191 196 195 196 199 201 201 202 202 203 202 202 201 202 201 199 199 195 193 198 195 198 201 203 206 208 205 204 210 205 170 179 198 210 222 230 229 219 215 218 220 219 218 214 196 194 195 189
319 317 320 320 321 317 320 322 317 314 310 305 307 299 289 289 289 286 287 292 285 256 224 208 197 192 187 183 182 183 184 185 184 185 188 187 190 193 196 198 199 202 201 202 201 202 205 206 206 203 203 201 200 199 193 191 192 193 202 206 207 213 212 209 222 191 126 169 175 178 173 173 164 188 203 206 212 203 178 196 199 196 192 192 187
315 315 318 317 313 314 319 322 317 317 313 306 305 298 292 290 286 288 306 304 282 241 215 203 192 183 183 184 183 180 177 180 184 183 187 191 195 197 199 201 201 199 198 200 201 201 204 204 207 205 201 201 202 200 195 191 191 191 199 197 198 199 191 200 204 206 198 173 156 110 117 119 117 129 172 140 145 140 182 181 188 184 188 189 192
316 317 319 316 314 315 314 317 313 308 310 311 300 300 296 288 300 311 312 310 286 231 212 201 191 183 183 181 179 176 179 179 182 188 193 195 196 201 205 209 207 202 202 199 198 201 202 203 203 202 197 199 201 202 205 191 188 189 187 185 183 194 195 198 205 197 176 146 139 157 146 147 148 158 152 163 162 161 171 188 180 176 180 184 186
307 308 314 314 313 313 319 318 311 312 313 304 297 305 303 302 303 299 297 308 309 263 216 201 186 184 176 174 176 177 181 182 186 191 194 183 27 46 215 211 208 205 207 206 203 208 206 203 204 206 202 198 202 208 180 179 185 184 185 183 187 184 187 191 196 196 187 180 171 171 184 179 182 174 179 180 182 183 181 175 191 181 184 188 193
310 313 318 320 317 317 317 319 322 323 315 318 320 316 315 304 301 301 295 290 294 309 209 170 171 179 175 179 182 182 185 189 191 193 193 183 176 116 43 33 357 259 205 203 206 212 211 206 201 206 210 214 213 150 158 175 178 181 184 187 187 187 187 194 191 167 194 197 192 192 194 195 190 190 193 197 192 187 190 185 187 192 197 199 195